Millville, NJ

2:28 PM EDT on October 21, 2017 (GMT -0400)
Millville Municipal

Weather History for KMIV - June, 2013

Change the Weather History Date:

Friday, June 28, 2013

  Actual Average Record
Temperature  
Mean Temperature 78 °F -  
Max Temperature 87 °F 83 °F 98 °F (1969)
Min Temperature 70 °F 63 °F 51 °F (1970)
Cooling Degree Days 13    
Growing Degree Days 28 (Base 50)    
Moisture  
Dew Point 68 °F    
Average Humidity 76    
Maximum Humidity 94    
Minimum Humidity 53    
Precipitation  
Precipitation 0.12 in - - ()
Sea Level Pressure  
Sea Level Pressure 29.56 in    
Wind  
Wind Speed 5 mph (WSW)    
Max Wind Speed 14 mph    
Max Gust Speed 20 mph    
Visibility 9 miles    
Events Rain , Thunderstorm    
Averages and records for this station are not official NWS values.
T = Trace of Precipitation, MM = Missing Value Source: NWS Daily Summary

Daily Weather History Graph

Daily Weather History Graph

Search for Another Location

Airport or City:

Trip Planner

Search our weather history database for the weather conditions in past years. The results will help you decide how hot, cold, wet, or windy it might be!

Date:

Astronomy

Jun. 28, 2013 Rise Set
Actual Time 5:35 AM EDT 8:31 PM EDT
Civil Twilight 5:03 AM EDT 9:03 PM EDT
Nautical Twilight 4:22 AM EDT 9:44 PM EDT
Astronomical Twilight 3:35 AM EDT 10:31 PM EDT
Moon No Moon Rise 11:38 AM EDT (6/28)
Length of Visible Light 15h 59m
Length of Day
14h 55m
Waning Gibbous, 66% of the Moon is Illuminated
Jun 28
Waning Gibbous
Jun 30
Last Quarter
Jul 8
New
Jul 15
First Quarter
Jul 22
Full

Hourly Weather History & Observations

Time (EDT) Temp. Heat Index Dew Point Humidity Pressure Visibility Wind Dir Wind Speed Gust Speed Precip Events Conditions
12:54 AM 75.0 °F - 70.0 °F 84% 29.61 in 10.0 mi Variable 4.6 mph - N/A   Clear
1:54 AM 73.9 °F - 71.1 °F 91% 29.60 in 10.0 mi Calm Calm - N/A   Mostly Cloudy
2:54 AM 73.9 °F - 70.0 °F 87% 29.58 in 10.0 mi Calm Calm - N/A   Scattered Clouds
3:54 AM 73.0 °F - 70.0 °F 90% 29.57 in 7.0 mi Calm Calm - N/A   Clear
4:54 AM 73.0 °F - 71.1 °F 93% 29.57 in 7.0 mi SW 4.6 mph - N/A   Clear
5:41 AM 73.4 °F - 71.6 °F 94% 29.58 in 6.0 mi SW 3.5 mph - N/A   Partly Cloudy
5:54 AM 73.9 °F - 71.1 °F 91% 29.58 in 5.0 mi SW 3.5 mph - N/A   Partly Cloudy
6:54 AM 75.0 °F - 72.0 °F 90% 29.59 in 7.0 mi WSW 6.9 mph - N/A   Clear
7:54 AM 78.1 °F - 71.1 °F 79% 29.59 in 9.0 mi Variable 5.8 mph - N/A   Clear
8:54 AM 80.1 °F 82.9 °F 69.1 °F 69% 29.57 in 9.0 mi WSW 10.4 mph 19.6 mph N/A   Clear
9:54 AM 80.1 °F 82.7 °F 68.0 °F 67% 29.56 in 10.0 mi West 12.7 mph - N/A   Mostly Cloudy
10:04 AM 80.6 °F 83.2 °F 68.0 °F 65% 29.57 in 10.0 mi West 13.8 mph - N/A   Scattered Clouds
10:54 AM 82.0 °F 84.9 °F 68.0 °F 62% 29.57 in 10.0 mi West 13.8 mph 18.4 mph N/A   Clear
11:54 AM 82.9 °F 85.8 °F 68.0 °F 60% 29.58 in 10.0 mi WSW 11.5 mph - N/A   Clear
12:54 PM 84.9 °F 87.6 °F 66.9 °F 55% 29.57 in 10.0 mi SW 9.2 mph - N/A   Partly Cloudy
1:54 PM 84.9 °F 87.6 °F 66.9 °F 55% 29.55 in 10.0 mi SW 6.9 mph - N/A   Mostly Cloudy
2:54 PM 86.0 °F 90.1 °F 69.1 °F 57% 29.53 in 10.0 mi WSW 4.6 mph - N/A   Mostly Cloudy
3:54 PM 86.0 °F 89.4 °F 68.0 °F 55% 29.50 in 10.0 mi SW 8.1 mph - N/A   Scattered Clouds
4:54 PM 84.9 °F 87.1 °F 66.0 °F 53% 29.51 in 10.0 mi SW 5.8 mph - N/A   Clear
5:54 PM 81.0 °F 84.9 °F 71.1 °F 72% 29.51 in 8.0 mi Calm Calm - N/A   Scattered Clouds
6:54 PM 78.1 °F - 66.9 °F 68% 29.52 in 10.0 mi North 10.4 mph - 0.00 in   Partly Cloudy
7:22 PM 75.2 °F - 64.4 °F 69% 29.55 in 10.0 mi North 10.4 mph - N/A Thunderstorm Mostly Cloudy
7:39 PM 75.2 °F - 64.4 °F 69% 29.55 in 10.0 mi NNW 8.1 mph - N/A   Mostly Cloudy
7:54 PM 73.0 °F - 66.0 °F 79% 29.54 in 10.0 mi NNE 8.1 mph - N/A   Partly Cloudy
8:54 PM 72.0 °F - 66.9 °F 84% 29.57 in 7.0 mi Calm Calm - 0.01 in Rain Light Rain
9:01 PM 71.6 °F - 66.2 °F 83% 29.58 in 8.0 mi Calm Calm - 0.00 in Rain , Thunderstorm Light Rain
9:16 PM 71.6 °F - 68.0 °F 88% 29.59 in 6.0 mi Calm Calm - 0.01 in Rain Light Rain
9:54 PM 70.0 °F - 68.0 °F 93% 29.57 in 4.0 mi Calm Calm - 0.08 in Rain Light Rain
10:54 PM 72.0 °F - 66.9 °F 84% 29.52 in 10.0 mi South 6.9 mph - 0.03 in   Mostly Cloudy
11:54 PM 71.1 °F - 68.0 °F 90% 29.54 in 10.0 mi West 5.8 mph - 0.00 in   Scattered Clouds